| time (UTC) | temp F | wind direction | speed MPH | gust MPH | rain 1hr in | rain 24hr in | rain mn in | humidity % | barometer mb |
| 20260904034350 | 84 | 154 | 5.0 | 15.0 | 0.00 | 0.00 | 0.00 | 68 | 1015.0 |
| 20260904033411 | 84 | 173 | 5.0 | 10.0 | 0.00 | 0.00 | 0.00 | 67 | 1014.7 |
| 20260904032334 | 85 | 138 | 6.0 | 14.0 | 0.00 | 0.00 | 0.00 | 66 | 1014.6 |
| 20260904031407 | 85 | 121 | 5.0 | 9.0 | 0.00 | 0.00 | 0.00 | 66 | 1014.6 |
| 20260904030347 | 85 | 127 | 4.0 | 11.0 | 0.00 | 0.00 | 0.00 | 67 | 1014.4 |
| 20260904025353 | 85 | 121 | 6.0 | 13.0 | 0.00 | 0.00 | 0.00 | 66 | 1014.4 |
| 20260904024327 | 86 | 133 | 4.0 | 10.0 | 0.00 | 0.00 | 0.00 | 66 | 1014.2 |
| 20260904022328 | 86 | 121 | 4.0 | 10.0 | 0.00 | 0.00 | 0.00 | 65 | 1014.0 |
| 20260904021356 | 86 | 133 | 6.0 | 10.0 | 0.00 | 0.00 | 0.00 | 64 | 1013.7 |
| 20260904020416 | 86 | 144 | 4.0 | 9.0 | 0.00 | 0.00 | 0.00 | 63 | 1013.8 |
| 20260904014336 | 86 | 112 | 3.0 | 7.0 | 0.00 | 0.00 | 0.00 | 64 | 1013.4 |
| 20260904013344 | 86 | 115 | 4.0 | 9.0 | 0.00 | 0.00 | 0.00 | 65 | 1013.2 |
| 20260904012415 | 86 | 150 | 3.0 | 10.0 | 0.00 | 0.00 | 0.00 | 65 | 1013.2 |
| 20260904011334 | 87 | 142 | 6.0 | 13.0 | 0.00 | 0.00 | 0.00 | 65 | 1012.9 |
| 20260904010404 | 87 | 142 | 5.0 | 11.0 | 0.00 | 0.00 | 0.00 | 64 | 1012.9 |
| 20260904005325 | 87 | 111 | 7.0 | 14.0 | 0.00 | 0.00 | 0.00 | 63 | 1012.9 |
| 20260904004401 | 88 | 121 | 4.0 | 15.0 | 0.00 | 0.00 | 0.00 | 62 | 1012.7 |
| 20260904003325 | 89 | 94 | 6.0 | 19.0 | 0.00 | 0.00 | 0.00 | 59 | 1012.7 |
| 20260903233345 | 94 | 59 | 2.0 | 12.0 | 0.00 | 0.00 | 0.00 | 47 | 1012.1 |
| 20260903232352 | 94 | 98 | 5.0 | 11.0 | 0.00 | 0.00 | 0.00 | 46 | 1012.1 |
| 20260903231422 | 94 | 136 | 7.0 | 13.0 | 0.00 | 0.00 | 0.00 | 46 | 1012.0 |
| 20260903230336 | 94 | 138 | 7.0 | 12.0 | 0.00 | 0.00 | 0.00 | 48 | 1011.9 |
| 20260903225330 | 94 | 94 | 5.0 | 16.0 | 0.00 | 0.00 | 0.00 | 49 | 1011.9 |
| 20260903224405 | 95 | 85 | 7.0 | 12.0 | 0.00 | 0.00 | 0.00 | 48 | 1011.8 |
| 20260903223335 | 94 | 122 | 4.0 | 17.0 | 0.00 | 0.00 | 0.00 | 49 | 1011.8 |
| 20260903222354 | 97 | 135 | 6.0 | 15.0 | 0.00 | 0.00 | 0.00 | 45 | 1011.9 |
| 20260903221421 | 98 | 169 | 5.0 | 10.0 | 0.00 | 0.00 | 0.00 | 42 | 1011.6 |
| 20260903215347 | 99 | 107 | 7.0 | 12.0 | 0.00 | 0.00 | 0.00 | 41 | 1011.7 |
| 20260903214407 | 99 | 88 | 3.0 | 7.0 | 0.00 | 0.00 | 0.00 | 41 | 1011.7 |
| 20260903213337 | 99 | 232 | 3.0 | 9.0 | 0.00 | 0.00 | 0.00 | 41 | 1011.9 |
| 20260903212403 | 97 | 154 | 4.0 | 8.0 | 0.00 | 0.00 | 0.00 | 43 | 1012.0 |
| 20260903211327 | 96 | 131 | 1.0 | 7.0 | 0.00 | 0.00 | 0.00 | 44 | 1012.1 |
| 20260903210409 | 96 | 68 | 3.0 | 8.0 | 0.00 | 0.00 | 0.00 | 45 | 1012.3 |
| 20260903205343 | 97 | 126 | 3.0 | 9.0 | 0.00 | 0.00 | 0.00 | 46 | 1012.5 |
| 20260903204418 | 98 | 169 | 4.0 | 10.0 | 0.00 | 0.00 | 0.00 | 45 | 1012.5 |
| 20260903203338 | 98 | 63 | 2.0 | 8.0 | 0.00 | 0.00 | 0.00 | 43 | 1012.7 |
| 20260903202414 | 98 | 173 | 3.0 | 6.0 | 0.00 | 0.00 | 0.00 | 44 | 1012.9 |
| 20260903200330 | 97 | 130 | 3.0 | 7.0 | 0.00 | 0.00 | 0.00 | 46 | 1013.1 |
| 20260903195336 | 97 | 195 | 3.0 | 11.0 | 0.00 | 0.00 | 0.00 | 45 | 1013.2 |
| 20260903194337 | 97 | 279 | 4.0 | 12.0 | 0.00 | 0.00 | 0.00 | 46 | 1013.3 |
| 20260903193408 | 96 | 184 | 4.0 | 11.0 | 0.00 | 0.00 | 0.00 | 47 | 1013.4 |
| 20260903192413 | 96 | 221 | 4.0 | 9.0 | 0.00 | 0.00 | 0.00 | 47 | 1013.6 |
| 20260903183331 | 94 | 265 | 4.0 | 9.0 | 0.00 | 0.00 | 0.00 | 52 | 1014.7 |
| 20260903182403 | 94 | 141 | 5.0 | 10.0 | 0.00 | 0.00 | 0.00 | 52 | 1014.8 |
| 20260903181344 | 93 | 157 | 2.0 | 9.0 | 0.00 | 0.00 | 0.00 | 54 | 1014.9 |
| 20260903180419 | 93 | 190 | 4.0 | 10.0 | 0.00 | 0.00 | 0.00 | 54 | 1015.1 |
| 20260903175331 | 92 | 150 | 4.0 | 10.0 | 0.00 | 0.00 | 0.00 | 55 | 1015.1 |
| 20260903174351 | 91 | 162 | 5.0 | 10.0 | 0.00 | 0.00 | 0.00 | 58 | 1015.3 |
| 20260903173323 | 90 | 197 | 5.0 | 11.0 | 0.00 | 0.00 | 0.00 | 60 | 1015.4 |
| 20260903172330 | 90 | 169 | 5.0 | 12.0 | 0.00 | 0.00 | 0.00 | 60 | 1015.5 |
| 20260903171359 | 90 | 254 | 5.0 | 12.0 | 0.00 | 0.00 | 0.00 | 62 | 1015.8 |
| 20260903170329 | 90 | 173 | 5.0 | 10.0 | 0.00 | 0.00 | 0.00 | 61 | 1015.8 |
| 20260903165406 | 89 | 203 | 4.0 | 10.0 | 0.00 | 0.00 | 0.00 | 64 | 1015.9 |
| 20260903164334 | 88 | 167 | 3.0 | 7.0 | 0.00 | 0.00 | 0.00 | 66 | 1015.9 |
| 20260903161342 | 87 | 161 | 4.0 | 12.0 | 0.00 | 0.00 | 0.00 | 67 | 1016.1 |
| 20260903160349 | 87 | 171 | 5.0 | 11.0 | 0.00 | 0.00 | 0.00 | 68 | 1016.0 |
| 20260903155421 | 87 | 223 | 4.0 | 10.0 | 0.00 | 0.00 | 0.00 | 69 | 1016.0 |
| 20260903154334 | 86 | 211 | 4.0 | 10.0 | 0.00 | 0.00 | 0.00 | 70 | 1016.0 |
| 20260903153414 | 85 | 162 | 3.0 | 9.0 | 0.00 | 0.00 | 0.00 | 72 | 1016.0 |
| 20260903152422 | 85 | 229 | 6.0 | 10.0 | 0.00 | 0.00 | 0.00 | 73 | 1015.9 |
| 20260903145358 | 84 | 207 | 2.0 | 7.0 | 0.00 | 0.00 | 0.00 | 76 | 1016.0 |
| 20260903144416 | 83 | 169 | 6.0 | 9.0 | 0.00 | 0.00 | 0.00 | 77 | 1016.0 |
| 20260903142342 | 82 | 174 | 4.0 | 9.0 | 0.00 | 0.00 | 0.00 | 80 | 1016.1 |
| 20260903141354 | 82 | 220 | 5.0 | 10.0 | 0.00 | 0.00 | 0.00 | 80 | 1016.2 |
| 20260903140332 | 82 | 267 | 4.0 | 8.0 | 0.00 | 0.00 | 0.00 | 80 | 1016.2 |
| 20260903135357 | 81 | 219 | 5.0 | 9.0 | 0.00 | 0.00 | 0.00 | 81 | 1016.2 |
| 20260903134418 | 81 | 225 | 3.0 | 9.0 | 0.00 | 0.00 | 0.00 | 82 | 1016.3 |
| 20260903133344 | 80 | 176 | 5.0 | 9.0 | 0.00 | 0.00 | 0.00 | 82 | 1016.4 |
| 20260903132404 | 80 | 219 | 3.0 | 7.0 | 0.00 | 0.00 | 0.00 | 83 | 1016.3 |
| 20260903131323 | 80 | 200 | 1.0 | 7.0 | 0.00 | 0.00 | 0.00 | 83 | 1016.4 |
| 20260903125345 | 80 | 166 | 3.0 | 8.0 | 0.00 | 0.00 | 0.00 | 84 | 1016.1 |
| 20260903124411 | 79 | 167 | 2.0 | 8.0 | 0.00 | 0.00 | 0.00 | 84 | 1016.0 |
| 20260903123341 | 79 | 166 | 2.0 | 6.0 | 0.00 | 0.00 | 0.00 | 85 | 1016.0 |
| 20260903122401 | 79 | 152 | 1.0 | 6.0 | 0.00 | 0.00 | 0.00 | 85 | 1015.8 |
| 20260903121323 | 79 | 196 | 2.0 | 4.0 | 0.00 | 0.00 | 0.00 | 85 | 1015.7 |
| 20260903115350 | 79 | 157 | 0.0 | 2.0 | 0.00 | 0.00 | 0.00 | 86 | 1015.8 |
| 20260903114414 | 79 | 157 | 1.0 | 3.0 | 0.00 | 0.00 | 0.00 | 86 | 1015.7 |
| 20260903113328 | 79 | 197 | 1.0 | 3.0 | 0.00 | 0.00 | 0.00 | 86 | 1015.6 |
| 20260903112347 | 79 | 197 | 3.0 | 8.0 | 0.00 | 0.00 | 0.00 | 86 | 1015.6 |
| 20260903111417 | 79 | 214 | 1.0 | 7.0 | 0.00 | 0.00 | 0.00 | 86 | 1015.4 |
| 20260903110335 | 79 | 267 | 2.0 | 9.0 | 0.00 | 0.00 | 0.00 | 85 | 1015.2 |
| 20260903105401 | 79 | 185 | 4.0 | 10.0 | 0.00 | 0.00 | 0.00 | 86 | 1015.2 |
| 20260903104325 | 79 | 188 | 4.0 | 9.0 | 0.00 | 0.00 | 0.00 | 86 | 1015.1 |
| 20260903103343 | 79 | 215 | 3.0 | 9.0 | 0.00 | 0.00 | 0.00 | 86 | 1015.2 |
| 20260903102349 | 79 | 172 | 3.0 | 8.0 | 0.00 | 0.00 | 0.00 | 86 | 1015.1 |
| 20260903101356 | 79 | 223 | 2.0 | 8.0 | 0.00 | 0.00 | 0.00 | 87 | 1015.1 |
| 20260903100323 | 79 | 167 | 1.0 | 7.0 | 0.00 | 0.00 | 0.00 | 87 | 1015.3 |
| 20260903095500 | 79 | 148 | 2.0 | 8.0 | 0.00 | 0.00 | 0.00 | 87 | 1015.2 |
| 20260903094334 | 79 | 161 | 1.0 | 5.0 | 0.00 | 0.00 | 0.00 | 87 | 1015.2 |
| 20260903093414 | 79 | 180 | 2.0 | 6.0 | 0.00 | 0.00 | 0.00 | 86 | 1015.3 |
| 20260903092342 | 79 | 169 | 2.0 | 4.0 | 0.00 | 0.00 | 0.00 | 86 | 1015.3 |
| 20260903091408 | 79 | 125 | 0.0 | 0.0 | 0.00 | 0.00 | 0.00 | 86 | 1015.4 |
| 20260903090331 | 79 | 125 | 1.0 | 4.0 | 0.00 | 0.00 | 0.00 | 86 | 1015.4 |
| 20260903085352 | 79 | 184 | 1.0 | 5.0 | 0.00 | 0.00 | 0.00 | 86 | 1015.3 |
| 20260903084421 | 79 | 161 | 2.0 | 5.0 | 0.00 | 0.00 | 0.00 | 85 | 1015.3 |
| 20260903083339 | 79 | 159 | 2.0 | 7.0 | 0.00 | 0.00 | 0.00 | 85 | 1015.5 |
| 20260903082409 | 79 | 175 | 2.0 | 6.0 | 0.00 | 0.00 | 0.00 | 84 | 1015.4 |
| 20260903081418 | 80 | 184 | 2.0 | 7.0 | 0.00 | 0.00 | 0.00 | 84 | 1015.4 |
| 20260903080347 | 80 | 182 | 3.0 | 5.0 | 0.00 | 0.00 | 0.00 | 83 | 1015.4 |
| 20260903075356 | 80 | 170 | 4.0 | 6.0 | 0.00 | 0.00 | 0.00 | 83 | 1015.5 |
| 20260903074324 | 80 | 164 | 2.0 | 5.0 | 0.00 | 0.00 | 0.00 | 82 | 1015.5 |
| 20260903070349 | 81 | 144 | 4.0 | 11.0 | 0.00 | 0.00 | 0.00 | 80 | 1015.6 |
| 20260903065340 | 81 | 154 | 1.0 | 7.0 | 0.00 | 0.00 | 0.00 | 79 | 1015.8 |
| 20260903064323 | 81 | 121 | 1.0 | 6.0 | 0.00 | 0.00 | 0.00 | 79 | 1015.9 |
| 20260903063337 | 82 | 157 | 3.0 | 9.0 | 0.00 | 0.00 | 0.00 | 78 | 1015.5 |
| 20260903062341 | 82 | 160 | 3.0 | 9.0 | 0.00 | 0.00 | 0.00 | 78 | 1015.6 |
| 20260903061326 | 82 | 134 | 2.0 | 8.0 | 0.00 | 0.00 | 0.00 | 77 | 1015.8 |
| 20260903060340 | 82 | 180 | 4.0 | 11.0 | 0.00 | 0.00 | 0.00 | 77 | 1015.5 |
| 20260903055324 | 83 | 168 | 4.0 | 10.0 | 0.00 | 0.00 | 0.00 | 76 | 1015.6 |
| 20260903054330 | 83 | 212 | 4.0 | 11.0 | 0.00 | 0.00 | 0.00 | 75 | 1015.8 |
| 20260903053345 | 84 | 150 | 5.0 | 12.0 | 0.00 | 0.00 | 0.00 | 73 | 1015.7 |
| 20260903052330 | 84 | 161 | 6.0 | 14.0 | 0.00 | 0.00 | 0.00 | 72 | 1015.5 |
| 20260903051331 | 84 | 178 | 6.0 | 11.0 | 0.00 | 0.00 | 0.00 | 71 | 1015.4 |
| 20260903050344 | 85 | 181 | 7.0 | 12.0 | 0.00 | 0.00 | 0.00 | 70 | 1015.3 |
| 20260903045410 | 85 | 169 | 5.0 | 10.0 | 0.00 | 0.00 | 0.00 | 69 | 1015.1 |
| 20260903044326 | 86 | 138 | 5.0 | 10.0 | 0.00 | 0.00 | 0.00 | 68 | 1015.0 |
| 20260903043357 | 86 | 159 | 5.0 | 10.0 | 0.00 | 0.00 | 0.00 | 67 | 1015.0 |
| 20260903042419 | 86 | 148 | 6.0 | 10.0 | 0.00 | 0.00 | 0.00 | 67 | 1014.9 |
| 20260903041330 | 87 | 176 | 8.0 | 12.0 | 0.00 | 0.00 | 0.00 | 66 | 1014.9 |
| 20260903040348 | 87 | 151 | 8.0 | 11.0 | 0.00 | 0.00 | 0.00 | 64 | 1014.9 |
| 20260903035403 | 87 | 139 | 5.0 | 9.0 | 0.00 | 0.00 | 0.00 | 61 | 1014.9 |